Regional Weather Roundup
Issued by NWS

Home | Current Version | Previous Version | Graphics & Text | Print | Product List | Glossary On
Versions: 1 2 3 4 5 6 7 8 9 10 11 12 13 14 15 16 17 18 19 20 21 22 23 24 25 26 27 28 29 30 31 32 33 34 35 36 37 38 39 40 41 42 43 44 45 46 47 48 49 50
000
ASUS43 KOAX 290002
RWRNE

WEATHER ROUNDUP FOR NEBRASKA
NATIONAL WEATHER SERVICE OMAHA NE
700 PM CDT MON JUL 28 2014

NOTES: SATELLITE DATA IS BEING USED TO AUGMENT CLOUD COVER ABOVE
       12000 FEET.
       "FAIR" INDICATES FEW OR NO CLOUDS BELOW 12,000 FEET WITH NO
       SIGNIFICANT WEATHER AND/OR OBSTRUCTIONS TO VISIBILITY.

  * THESE STATIONS DO NOT REPORT WEATHER SUCH AS RAIN...SNOW OR FOG.

NEZ001>004-019>022-054>056-290100-
NEBRASKA PANHANDLE

CITY           SKY/WX    TMP DP  RH WIND       PRES   REMARKS
SCOTTSBLUFF    SUNNY     88  58  36 E13       30.19F
6HR MIN TEMP:  78; 6HR MAX TEMP:  90;

ALLIANCE       MOSUNNY   87  53  31 S10       30.21F
6HR MIN TEMP:  80; 6HR MAX TEMP:  89;

CHADRON        SUNNY     87  55  33 E13       30.17F
6HR MIN TEMP:  81; 6HR MAX TEMP:  89;

KIMBALL        MOSUNNY   82  53  36 SE12      30.23F
SIDNEY         CLOUDY    82  56  40 S13G24    30.24S
6HR MIN TEMP:  82; 6HR MAX TEMP:  91;

$$

NEZ057>060-069>072-079>082-290100-
SOUTHWEST NEBRASKA

CITY           SKY/WX    TMP DP  RH WIND       PRES   REMARKS
NORTH PLATTE   CLOUDY    80  59  48 E13       30.21F
6HR MIN TEMP:  79; 6HR MAX TEMP:  84;

IMPERIAL       MOSUNNY   87  54  32 E9        30.19F
6HR MIN TEMP:  81; 6HR MAX TEMP:  90;

LEXINGTON      PTSUNNY   80  58  46 E7        30.21F
MCCOOK         MOSUNNY   85  59  41 E16       30.17F
6HR MIN TEMP:  81; 6HR MAX TEMP:  90;

OGALLALA       SUNNY     84  58  41 SE9       30.20S
$$

NEZ005>010-023>029-035>040-094-290100-
NORTH CENTRAL NEBRASKA

CITY           SKY/WX    TMP DP  RH WIND       PRES   REMARKS
VALENTINE      SUNNY     81  51  35 NE10      30.23F
6HR MIN TEMP:  75; 6HR MAX TEMP:  83;

AINSWORTH      SUNNY     77  51  39 E7        30.24S
BROKEN BOW     PTSUNNY   78  58  49 E3        30.23F
6HR MIN TEMP:  75; 6HR MAX TEMP:  80;

O`NEILL        MOSUNNY   77  48  36 NE3       30.24S
ORD            SUNNY     78  54  43 N6        30.22F
6HR MIN TEMP:  73; 6HR MAX TEMP:  80;

THEDFORD       MOSUNNY   80  56  43 E5        30.24F
$$

NEZ041-046>049-061>064-073>077-083>087-290100-
SOUTH CENTRAL NEBRASKA

CITY           SKY/WX    TMP DP  RH WIND       PRES   REMARKS
GRAND ISLAND   SUNNY     76  57  51 E8        30.23F
6HR MIN TEMP:  74; 6HR MAX TEMP:  80;

AURORA         SUNNY     76  57  52 NE6       30.23F
HASTINGS       SUNNY     77  56  48 NE6       30.23F
6HR MIN TEMP:  73; 6HR MAX TEMP:  79;

HEBRON         SUNNY     77  54  45 N5        30.21F
HOLDREGE       SUNNY     78  58  48 E8        30.22F
KEARNEY *      SUNNY     79  57  47 E8        30.23F
YORK           SUNNY     73  57  56 N10       30.23F
$$

NEZ011>018-030>034-042>045-290100-
NORTHEAST NEBRASKA

CITY           SKY/WX    TMP DP  RH WIND       PRES   REMARKS
NORFOLK        SUNNY     75  51  43 N10       30.22F
6HR MIN TEMP:  72; 6HR MAX TEMP:  77;

ALBION         SUNNY     73  55  52 NE5       30.23F
BLAIR          SUNNY     75  54  47 N7        30.18F
COLUMBUS *     SUNNY     73  54  49 NW12      30.22F
FREMONT        SUNNY     77  53  43 NW8       30.20F
TEKAMAH        SUNNY     77  55  46 NW10      30.18F
6HR MIN TEMP:  73; 6HR MAX TEMP:  80;

WAYNE          SUNNY     73  56  55 NW8       30.22S
$$

NEZ050>053-065>068-078-088>093-290100-
SOUTHEAST NEBRASKA

CITY           SKY/WX    TMP DP  RH WIND       PRES   REMARKS
LINCOLN        SUNNY     78  51  38 N14       30.21F
6HR MIN TEMP:  76; 6HR MAX TEMP:  81;

OMAHA EPPLEY   MOSUNNY   78  54  43 NW9       30.17F
6HR MIN TEMP:  73; 6HR MAX TEMP:  80;

BEATRICE       SUNNY     75  56  51 N12       30.20S
FALLS CITY     SUNNY     77  54  44 N8        30.16F
6HR MIN TEMP:  74; 6HR MAX TEMP:  80;

NEBRASKA CITY  MOSUNNY   75  54  47 N7        30.18F
PLATTSMOUTH    MOSUNNY   76  52  42 NW8       30.18F
$$

NEZ044-045-051>053-067-290100-
OMAHA AREA

CITY           SKY/WX    TMP DP  RH WIND       PRES   REMARKS
OMAHA EPPLEY   MOSUNNY   78  54  43 NW9       30.17F
6HR MIN TEMP:  73; 6HR MAX TEMP:  80;

BLAIR          SUNNY     75  54  47 N7        30.18F
FREMONT        SUNNY     77  53  43 NW8       30.20F
MILLARD        MOSUNNY   77  55  45 NW8       30.18F
OFFUTT AFB     MOSUNNY   77  56  48 VRB2      30.17F
PLATTSMOUTH    MOSUNNY   76  52  42 NW8       30.18F
WAHOO          FAIR      76  53  44 N7        30.20F
$$


USA.gov is the U.S. government's official web portal to all federal, state and local government web resources and services.